Imperial, NE

4:56 AM MDT on April 26, 2017 (GMT -0600)
Imperial Municipal

Weather History for KIML - August, 2014

Change the Weather History Date:

Saturday, August 9, 2014

  Actual Average Record
Temperature  
Mean Temperature 77 °F 75 °F  
Max Temperature 90 °F 89 °F 108 °F (1937)
Min Temperature 63 °F 62 °F 47 °F (1939)
Degree Days  
Heating Degree Days 0 0  
Month to date heating degree days 0 0  
Since 1 June heating degree days 40 36  
Cooling Degree Days 12 10  
Month to date cooling degree days 107 99  
Year to date cooling degree days 644 683  
Since 1 June cooling degree days 583 639  
Growing Degree Days 26 (Base 50)    
Moisture  
Dew Point 63 °F    
Average Humidity 68    
Maximum Humidity 93    
Minimum Humidity 43    
Precipitation  
Precipitation 0.03 in 0.08 in 1.54 in (2010)
Snow  
Snow 0.00 in - - ()
Snow Depth -    
Sea Level Pressure  
Sea Level Pressure 29.97 in    
Wind  
Wind Speed 10 mph (SE)    
Max Wind Speed 37 mph    
Max Gust Speed 46 mph    
Visibility 9 miles    
Events Rain , Thunderstorm    
T = Trace of Precipitation, MM = Missing Value Source: NWS Daily Summary

Daily Weather History Graph

Daily Weather History Graph

Search for Another Location

Airport or City:

Trip Planner

Search our weather history database for the weather conditions in past years. The results will help you decide how hot, cold, wet, or windy it might be!

Date:

Astronomy

Aug. 09, 2014 Rise Set
Actual Time 5:51 AM MDT 7:51 PM MDT
Civil Twilight 5:21 AM MDT 8:21 PM MDT
Nautical Twilight 4:45 AM MDT 8:57 PM MDT
Astronomical Twilight 4:05 AM MDT 9:37 PM MDT
Moon 6:54 PM MDT (8/9) 4:34 AM MDT (8/9)
Length of Visible Light 15h 00m
Length of Day
14h 00m
Waxing Gibbous, 98% of the Moon is Illuminated
Aug 9
Waxing Gibbous
Aug 10
Full
Aug 17
Last Quarter
Aug 25
New
Sep 2
First Quarter

Hourly Weather History & Observations

Time (MDT) Temp. Heat Index Dew Point Humidity Pressure Visibility Wind Dir Wind Speed Gust Speed Precip Events Conditions
12:53 AM 64.0 °F - 59.0 °F 84% 29.95 in 10.0 mi ESE 5.8 mph - N/A   Clear
1:53 AM 64.0 °F - 61.0 °F 90% 29.93 in 10.0 mi ESE 4.6 mph - N/A   Clear
2:53 AM 63.0 °F - 60.1 °F 90% 29.93 in 10.0 mi ESE 5.8 mph - N/A   Clear
3:53 AM 63.0 °F - 60.1 °F 90% 29.91 in 10.0 mi SE 6.9 mph - N/A   Clear
4:53 AM 63.0 °F - 61.0 °F 93% 29.91 in 10.0 mi SE 9.2 mph - N/A   Clear
5:17 AM 63.0 °F - 61.0 °F 93% 30.01 in 8.0 mi SE 8.1 mph - N/A   Partly Cloudy
5:27 AM 63.0 °F - 61.0 °F 93% 30.01 in 7.0 mi SE 8.1 mph - N/A   Mostly Cloudy
5:53 AM 64.0 °F - 62.1 °F 93% 29.93 in 6.0 mi SE 6.9 mph - N/A   Overcast
6:53 AM 64.9 °F - 63.0 °F 93% 29.94 in 5.0 mi SE 8.1 mph - N/A   Overcast
7:45 AM 66.9 °F - 64.9 °F 93% 30.03 in 5.0 mi SE 13.8 mph - N/A   Overcast
7:53 AM 66.9 °F - 64.9 °F 93% 29.94 in 5.0 mi SSE 11.5 mph - N/A   Overcast
8:53 AM 69.1 °F - 64.9 °F 87% 29.96 in 6.0 mi South 11.5 mph - N/A   Overcast
9:53 AM 70.0 °F - 66.0 °F 87% 29.96 in 6.0 mi South 10.4 mph - N/A   Overcast
10:21 AM 70.0 °F - 66.0 °F 87% 30.04 in 6.0 mi SSW 5.8 mph - N/A   Overcast
11:31 AM 75.0 °F - 66.9 °F 76% 30.04 in 8.0 mi SSE 9.2 mph - N/A   Scattered Clouds
11:53 AM 77.0 °F - 66.9 °F 71% 29.96 in 10.0 mi SSE 6.9 mph - N/A   Clear
12:53 PM 82.0 °F 84.9 °F 68.0 °F 62% 29.93 in 10.0 mi South 8.1 mph - N/A   Clear
1:53 PM 84.9 °F 87.6 °F 66.9 °F 55% 29.91 in 10.0 mi SW 8.1 mph - N/A   Partly Cloudy
2:53 PM 87.1 °F 89.9 °F 66.9 °F 51% 29.88 in 10.0 mi Calm Calm - N/A   Clear
3:53 PM 88.0 °F 89.3 °F 64.0 °F 45% 29.88 in 10.0 mi SE 4.6 mph - N/A   Clear
4:53 PM 87.1 °F 89.2 °F 66.0 °F 49% 29.87 in 10.0 mi ESE 11.5 mph - N/A   Clear
5:53 PM 87.1 °F 87.8 °F 63.0 °F 44% 29.86 in 10.0 mi SSE 6.9 mph - N/A   Clear
6:53 PM 84.0 °F 85.8 °F 64.9 °F 53% 29.87 in 10.0 mi South 6.9 mph - N/A   Partly Cloudy
7:33 PM 81.0 °F 82.2 °F 63.0 °F 54% 29.97 in 10.0 mi SSW 13.8 mph 23.0 mph N/A Thunderstorm Partly Cloudy
7:42 PM 81.0 °F 82.5 °F 64.0 °F 56% 29.99 in 10.0 mi Calm Calm - N/A Thunderstorm Thunderstorm
7:53 PM 77.0 °F - 62.1 °F 60% 29.91 in 10.0 mi NNW 12.7 mph - N/A Thunderstorm Thunderstorm
8:12 PM 80.1 °F 80.9 °F 60.1 °F 50% 29.97 in 10.0 mi North - - N/A   Mostly Cloudy
8:19 PM 80.1 °F 80.6 °F 57.9 °F 47% 29.96 in 10.0 mi SSW 16.1 mph 23.0 mph N/A Thunderstorm Scattered Clouds
8:50 PM 75.2 °F - 57.2 °F 53% 30.03 in 10.0 mi NE 24.2 mph 33.4 mph N/A Thunderstorm Scattered Clouds
8:53 PM 71.6 °F - 59.0 °F 64% 30.06 in 10.0 mi North 20.7 mph 33.4 mph N/A Thunderstorm Scattered Clouds
9:00 PM 70.0 °F - 60.1 °F 71% 30.08 in 10.0 mi North 13.8 mph 28.8 mph N/A Thunderstorm Mostly Cloudy
9:16 PM 66.0 °F - 60.1 °F 81% 30.07 in 10.0 mi NNE 20.7 mph 28.8 mph 0.00 in Rain Light Rain
9:29 PM 64.9 °F - 61.0 °F 87% 30.10 in 7.0 mi NNE 24.2 mph 33.4 mph 0.01 in Rain , Thunderstorm Light Rain
9:53 PM 66.2 °F - 59.0 °F 78% 30.05 in 10.0 mi NNE 31.1 mph 40.3 mph N/A Rain , Thunderstorm Light Rain
10:02 PM 66.0 °F - 61.0 °F 84% 30.04 in 10.0 mi NNE 21.9 mph 38.0 mph 0.00 in Rain Light Rain
10:53 PM 64.9 °F - 62.1 °F 90% 29.98 in 10.0 mi South 11.5 mph - 0.00 in   Clear
11:53 PM 64.0 °F - 62.1 °F 93% 30.01 in 10.0 mi SW 12.7 mph - N/A   Clear